GW3840 Weather Reports


time (UTC)temp
C
wind
direction
speed
KPH
gust
KPH
rain 1hr
cm
rain 24hr
cm
rain mn
cm
humidity
%
barometer
mb
20260504032752 15 259 4.8 11.3 0.00 0.00 0.00 45 1001.9
20260504032249 15 224 6.4 9.7 0.00 0.00 0.00 45 1002.1
20260504031746 15 180 3.2 4.8 0.00 0.00 0.00 44 1002.4
20260504031243 15 156 4.8 9.7 0.00 0.00 0.00 43 1002.2
20260504030738 15 195 1.6 1.6 0.00 0.00 0.00 44 1002.5
20260504030236 15 205 3.2 6.4 0.00 0.00 0.00 43 1002.7
20260504025733 15 196 1.6 4.8 0.00 0.00 0.00 43 1002.7
20260504025230 15 204 3.2 3.2 0.00 0.00 0.00 43 1002.8
20260504024727 15 204 3.2 6.4 0.00 0.00 0.00 42 1003.0
20260504024223 15 200 1.6 6.4 0.00 0.00 0.00 43 1003.1
20260504023720 15 228 1.6 6.4 0.00 0.00 0.00 43 1003.1
20260504023216 15 251 4.8 6.4 0.00 0.00 0.00 43 1003.1
20260504022712 15 168 3.2 4.8 0.00 0.00 0.00 45 1003.2
20260504022208 15 221 1.6 3.2 0.00 0.00 0.00 45 1003.3
20260504021706 15 195 1.6 6.4 0.00 0.00 0.00 45 1003.4
20260504021203 15 153 1.6 4.8 0.00 0.00 0.00 45 1003.3
20260504020700 15 227 3.2 6.4 0.00 0.00 0.00 46 1003.6
20260504020155 15 241 4.8 6.4 0.00 0.00 0.00 46 1003.6
20260504015652 15 136 4.8 6.4 0.00 0.00 0.00 45 1003.8
20260504015149 16 219 1.6 3.2 0.00 0.00 0.00 44 1003.7
20260504014644 16 209 4.8 6.4 0.00 0.00 0.00 43 1003.8
20260504014142 16 215 0.0 6.4 0.00 0.00 0.00 43 1003.9
20260504013639 16 228 4.8 4.8 0.00 0.00 0.00 41 1003.9
20260504013136 16 262 3.2 4.8 0.00 0.00 0.00 41 1004.0
20260504012633 16 219 3.2 9.7 0.00 0.00 0.00 42 1004.0
20260504012131 16 273 1.6 4.8 0.00 0.00 0.00 42 1004.3
20260504011628 16 273 1.6 4.8 0.00 0.00 0.00 42 1004.3
20260504011124 16 233 3.2 3.2 0.00 0.00 0.00 42 1004.1
20260504010620 17 252 1.6 3.2 0.00 0.00 0.00 41 1004.5
20260504010116 17 264 3.2 4.8 0.00 0.00 0.00 39 1004.3
20260504005613 18 255 1.6 3.2 0.00 0.00 0.00 36 1004.5
20260504005110 18 197 3.2 3.2 0.00 0.00 0.00 36 1004.7
20260504004608 18 257 4.8 6.4 0.00 0.00 0.00 36 1004.5
20260504004105 18 284 8.0 11.3 0.00 0.00 0.00 33 1004.7
20260504003601 18 255 9.7 11.3 0.00 0.00 0.00 33 1004.6
20260504003058 18 249 6.4 6.4 0.00 0.00 0.00 35 1004.7
20260504002555 18 252 3.2 4.8 0.00 0.00 0.00 35 1004.9
20260504002052 18 223 3.2 6.4 0.00 0.00 0.00 36 1005.1
20260504001550 19 256 9.7 12.9 0.00 0.00 0.00 33 1005.0
20260504001045 19 281 8.0 16.1 0.00 0.00 0.00 33 1005.1
20260504000543 19 249 4.8 6.4 0.00 0.00 0.00 33 1005.2
20260504000040 19 263 9.7 12.9 0.00 0.00 0.00 31 1005.3
20260503235539 19 319 9.7 11.3 0.00 0.00 0.00 30 1005.5
20260503235035 19 289 8.0 11.3 0.00 0.00 0.00 30 1005.4
20260503234533 20 260 14.5 17.7 0.00 0.00 0.00 30 1005.6
20260503234031 20 278 12.9 14.5 0.00 0.00 0.00 30 1005.5
20260503233527 20 259 11.3 14.5 0.00 0.00 0.00 30 1005.5
20260503233023 20 292 17.7 22.5 0.00 0.00 0.00 29 1005.7
20260503232520 19 279 12.9 14.5 0.00 0.00 0.00 30 1005.8
20260503232018 19 246 11.3 16.1 0.00 0.00 0.00 31 1005.9
20260503231516 19 324 9.7 12.9 0.00 0.00 0.00 31 1005.8
20260503231012 19 324 9.7 12.9 0.00 0.00 0.00 31 1005.9
20260503230509 19 324 9.7 12.9 0.00 0.00 0.00 31 1005.9
20260503230007 19 221 12.9 14.5 0.00 0.00 0.00 30 1006.3
20260503225503 19 221 12.9 14.5 0.00 0.00 0.00 30 1005.9
20260503224958 19 241 9.7 12.9 0.00 0.00 0.00 30 1006.2
20260503224455 19 241 9.7 12.9 0.00 0.00 0.00 30 1006.0
20260503223953 19 241 9.7 12.9 0.00 0.00 0.00 30 1006.2
20260503223451 19 241 9.7 12.9 0.00 0.00 0.00 30 1006.4
20260503222946 20 246 14.5 17.7 0.00 0.00 0.00 31 1006.3
20260503222445 20 263 11.3 14.5 0.00 0.00 0.00 30 1006.4
20260503221943 20 274 12.9 16.1 0.00 0.00 0.00 32 1006.1
20260503221441 20 274 12.9 16.1 0.00 0.00 0.00 32 1006.4
20260503220937 20 274 12.9 16.1 0.00 0.00 0.00 32 1006.4
20260503220434 20 274 12.9 16.1 0.00 0.00 0.00 32 1006.4
20260503215931 20 274 12.9 16.1 0.00 0.00 0.00 32 1006.4
20260503215428 20 274 12.9 16.1 0.00 0.00 0.00 32 1006.7
20260503214926 20 274 12.9 16.1 0.00 0.00 0.00 32 1006.6
20260503214423 20 274 12.9 16.1 0.00 0.00 0.00 32 1006.6
20260503213920 20 269 14.5 17.7 0.00 0.00 0.00 29 1006.8
20260503213418 20 269 14.5 17.7 0.00 0.00 0.00 29 1006.9
20260503212914 20 300 17.7 24.1 0.00 0.00 0.00 29 1007.1
20260503212412 20 226 6.4 14.5 0.00 0.00 0.00 30 1007.0
20260503211909 20 245 11.3 20.9 0.00 0.00 0.00 31 1007.1
20260503211406 20 315 11.3 14.5 0.00 0.00 0.00 28 1007.4
20260503210901 20 308 6.4 14.5 0.00 0.00 0.00 32 1007.2
20260503210359 20 291 14.5 20.9 0.00 0.00 0.00 30 1007.4
20260503205853 20 343 6.4 12.9 0.00 0.00 0.00 35 1007.6
20260503205350 20 276 9.7 20.9 0.00 0.00 0.00 31 1007.7
20260503204846 19 244 12.9 16.1 0.00 0.00 0.00 32 1007.7
20260503204344 19 354 6.4 12.9 0.00 0.00 0.00 36 1007.7
20260503203841 19 256 9.7 16.1 0.00 0.00 0.00 36 1007.9
20260503203338 18 324 6.4 17.7 0.00 0.00 0.00 34 1008.0
20260503202835 18 276 8.0 14.5 0.00 0.00 0.00 34 1008.1
20260503202333 18 300 6.4 9.7 0.00 0.00 0.00 35 1008.1
20260503201831 18 0 9.7 22.5 0.00 0.00 0.00 35 1008.3
20260503201327 18 306 9.7 17.7 0.00 0.00 0.00 36 1008.3
20260503200826 18 2 11.3 22.5 0.00 0.00 0.00 33 1008.4
20260503200321 18 308 12.9 14.5 0.00 0.00 0.00 33 1008.4
20260503195819 18 347 11.3 16.1 0.00 0.00 0.00 31 1008.5
20260503195315 18 296 12.9 16.1 0.00 0.00 0.00 31 1008.7
20260503194813 18 314 6.4 11.3 0.00 0.00 0.00 34 1008.8
20260503194308 18 259 14.5 20.9 0.00 0.00 0.00 38 1008.6
20260503193804 18 313 12.9 16.1 0.00 0.00 0.00 34 1008.8
20260503193301 18 207 17.7 20.9 0.00 0.00 0.00 33 1008.7
20260503192756 18 207 17.7 20.9 0.00 0.00 0.00 33 1008.9
20260503192252 18 340 12.9 14.5 0.00 0.00 0.00 35 1008.9
20260503191749 18 324 8.0 11.3 0.00 0.00 0.00 35 1008.9
20260503191246 18 309 9.7 11.3 0.00 0.00 0.00 37 1009.1
20260503190743 18 322 8.0 14.5 0.00 0.00 0.00 35 1009.0
20260503190240 18 294 9.7 16.1 0.00 0.00 0.00 33 1009.1
20260503185737 17 267 11.3 16.1 0.00 0.00 0.00 34 1009.1
20260503185232 17 328 8.0 11.3 0.00 0.00 0.00 34 1009.3
20260503184727 17 294 8.0 16.1 0.00 0.00 0.00 33 1009.5
20260503184224 17 283 6.4 11.3 0.00 0.00 0.00 36 1009.2
20260503183720 17 15 12.9 17.7 0.00 0.00 0.00 37 1009.3
20260503183217 17 314 4.8 12.9 0.00 0.00 0.00 36 1009.6
20260503182716 17 330 3.2 14.5 0.00 0.00 0.00 33 1009.6
20260503182214 17 287 12.9 16.1 0.00 0.00 0.00 33 1009.7
20260503181710 17 348 6.4 17.7 0.00 0.00 0.00 35 1009.9
20260503181207 17 317 9.7 12.9 0.00 0.00 0.00 34 1010.0
20260503180704 17 10 6.4 9.7 0.00 0.00 0.00 38 1010.2
20260503180202 16 250 3.2 9.7 0.00 0.00 0.00 41 1010.2
20260503175659 16 5 9.7 14.5 0.00 0.00 0.00 35 1010.4
20260503175156 16 354 14.5 16.1 0.00 0.00 0.00 34 1010.4
20260503174652 16 64 12.9 20.9 0.00 0.00 0.00 35 1010.3
20260503174150 17 347 6.4 12.9 0.00 0.00 0.00 35 1010.3
20260503173644 16 243 8.0 17.7 0.00 0.00 0.00 36 1010.5
20260503173141 16 351 9.7 22.5 0.00 0.00 0.00 36 1010.4
20260503172638 16 293 6.4 12.9 0.00 0.00 0.00 38 1010.6
20260503172135 16 316 9.7 20.9 0.00 0.00 0.00 36 1010.5
20260503171632 16 253 6.4 17.7 0.00 0.00 0.00 37 1010.5
20260503171129 16 26 8.0 12.9 0.00 0.00 0.00 37 1010.6
20260503170626 16 268 4.8 12.9 0.00 0.00 0.00 38 1010.7
20260503170123 16 328 9.7 20.9 0.00 0.00 0.00 36 1010.6
20260503150515 13 324 11.3 14.5 0.00 0.00 0.00 42 1010.7
20260503131408 11 154 8.0 14.5 0.00 0.00 0.00 65 1010.2
20260503130904 11 29 8.0 11.3 0.00 0.00 0.00 65 1010.1
20260503130402 10 319 11.3 14.5 0.00 0.00 0.00 66 1010.1
20260503110805 8 357 4.8 11.3 0.00 0.00 0.00 71 1008.9
20260503110303 8 19 3.2 9.7 0.00 0.00 0.00 71 1008.8
20260503100229 8 48 1.6 3.2 0.00 0.00 0.00 71 1008.5
20260503090154 8 124 3.2 4.8 0.00 0.00 0.00 68 1007.9
20260503081630 10 341 6.4 6.4 0.00 0.00 0.00 66 1007.2
20260503081126 10 327 3.2 9.7 0.00 0.00 0.00 65 1007.2
20260503080622 10 328 4.8 6.4 0.00 0.00 0.00 65 1007.2
20260503080119 10 343 6.4 9.7 0.00 0.00 0.00 65 1007.1
20260503072556 10 233 1.6 3.2 0.00 0.00 0.00 69 1006.9
20260503072054 10 235 1.6 3.2 0.00 0.00 0.00 70 1007.0
20260503071550 8 226 0.0 1.6 0.00 0.00 0.00 74 1006.8
20260503071047 8 232 1.6 3.2 0.00 0.00 0.00 75 1006.8
20260503070543 8 224 0.0 0.0 0.00 0.00 0.00 78 1006.7
20260503055003 12 206 4.8 4.8 0.00 0.00 0.00 59 1007.0
20260503054458 12 311 1.6 3.2 0.00 0.00 0.00 61 1007.0
20260503053956 12 147 0.0 4.8 0.00 0.00 0.00 58 1006.8
20260503053454 12 270 1.6 4.8 0.00 0.00 0.00 59 1007.0
20260503052950 11 227 0.0 9.7 0.00 0.00 0.00 63 1007.0
20260503052448 11 296 4.8 4.8 0.00 0.00 0.00 66 1006.6
20260503051944 10 185 1.6 3.2 0.00 0.00 0.00 72 1006.8
20260503051440 10 302 1.6 1.6 0.00 0.00 0.00 73 1006.8
20260503050937 10 195 0.0 0.0 0.00 0.00 0.00 72 1006.9
20260503050433 11 277 0.0 0.0 0.00 0.00 0.00 71 1006.8
20260503045931 11 260 1.6 1.6 0.00 0.00 0.00 69 1006.7
20260503045429 10 175 0.0 1.6 0.00 0.00 0.00 69 1006.8
20260503044925 11 205 0.0 1.6 0.00 0.00 0.00 68 1006.8
20260503044422 11 338 3.2 4.8 0.00 0.00 0.00 65 1006.9
20260503043920 12 276 3.2 3.2 0.00 0.00 0.00 60 1006.7
20260503043416 12 226 3.2 4.8 0.00 0.00 0.00 59 1006.6
20260503042912 12 166 1.6 3.2 0.00 0.00 0.00 60 1006.6
20260503042409 13 235 0.0 3.2 0.00 0.00 0.00 60 1006.8
20260503041905 13 235 1.6 4.8 0.00 0.00 0.00 55 1006.8
20260503041403 13 199 6.4 6.4 0.00 0.00 0.00 54 1006.8
20260503040900 13 239 1.6 9.7 0.00 0.00 0.00 53 1006.7
20260503040357 13 216 4.8 6.4 0.00 0.00 0.00 52 1006.7
20260503035854 13 239 4.8 4.8 0.00 0.00 0.00 51 1007.0
20260503035351 14 227 3.2 4.8 0.00 0.00 0.00 50 1007.0
20260503034848 14 186 1.6 6.4 0.00 0.00 0.00 49 1007.0
20260503034346 14 181 1.6 9.7 0.00 0.00 0.00 47 1007.0
20260503033843 15 243 3.2 6.4 0.00 0.00 0.00 47 1007.0
20260503033340 15 224 4.8 4.8 0.00 0.00 0.00 47 1007.1